Location: Dillon
(41.1766°N, 107.0923°W)
Time: 04:42:27
(UTC+00:00)

STRAND 1 - Visible Passes

Search period start: 26 June 2022 00:00
Search period end: 06 July 2022 00:00
Orbit: 768 x 780 km, 98.4° (Epoch: 25 June)

Date Brightness Start Highest point End Pass type
(mag) Time Alt. Az. Time Alt. Az. Time Alt. Az.
27 Jun ? 03:38:53 10° NNW 03:42:08 17° WNW 03:45:23 10° WSW visible
30 Jun ? 03:35:22 10° NNW 03:38:47 18° WNW 03:42:12 10° WSW visible
03 Jul ? 03:31:51 10° NNW 03:35:27 19° WNW 03:39:01 10° WSW visible
05 Jul ? 04:05:08 10° NW 04:05:48 10° WNW 04:06:28 10° WNW visible
